Tracking 32936 objects as of 16-Jan-2026
HD Live streaming from Space Station
objects crossing your sky now

STARLINK 1047

Track STARLINK 1047 now!
10-day predictions
STARLINK 1047 is classified as:


NORAD ID: 44752
Int'l Code: 2019-074AR
Perigee: 476.4 km
Apogee: 482.3 km
Inclination: 53.1 °
Period: 94.0 minutes
Semi major axis: 6850 km
RCS: Unknown
Launch date: November 11, 2019
Source: United States (US)
Launch site: AIR FORCE EASTERN TEST RANGE (AFETR)
Your satellite tracking list
Your tracking list is empty




NASA's NSSDC Master Catalog

Two Line Element Set (TLE):
1 44752U 19074AR  26016.23860893  .00008144  00000-0  27801-3 0  9995
2 44752  53.0722  30.7892 0004310  62.4396 297.7042 15.31216225341300
Source of the keplerian elements: AFSPC